Kaneohe MCBH, HI

1:08 AM HST on December 12, 2017 (GMT -1000)
Kaneohe Bay Marine Corps Air Facility

Weather History for PHNG - January, 2012

Change the Weather History Date:

Monday, January 9, 2012

  Actual Average Record
Temperature  
Mean Temperature 74 °F -  
Max Temperature 78 °F 76 °F 82 °F (2002)
Min Temperature 71 °F 66 °F 57 °F (2011)
Cooling Degree Days 10    
Growing Degree Days 24 (Base 50)    
Moisture  
Dew Point 65 °F    
Average Humidity 72    
Maximum Humidity 81    
Minimum Humidity 61    
Precipitation  
Precipitation 0.01 in - - ()
Sea Level Pressure  
Sea Level Pressure 30.10 in    
Wind  
Wind Speed 7 mph (ENE)    
Max Wind Speed 13 mph    
Max Gust Speed 18 mph    
Visibility 10 miles    
Events      
Averages and records for this station are not official NWS values.
T = Trace of Precipitation, MM = Missing Value Source: NWS Daily Summary

Daily Weather History Graph

Daily Weather History Graph

Search for Another Location

Airport or City:

Trip Planner

Search our weather history database for the weather conditions in past years. The results will help you decide how hot, cold, wet, or windy it might be!

Date:

Astronomy

Jan. 09, 2012 Rise Set
Actual Time 7:10 AM HST 6:05 PM HST
Civil Twilight 6:46 AM HST 6:29 PM HST
Nautical Twilight 6:19 AM HST 6:57 PM HST
Astronomical Twilight 5:52 AM HST 7:24 PM HST
Moon 6:54 PM HST (1/9) 7:25 AM HST (1/9)
Length of Visible Light 11h 42m
Length of Day
10h 54m
Full, 100% of the Moon is Illuminated
Jan 9
Full
Jan 15
Last Quarter
Jan 22
New
Jan 30
First Quarter
Feb 7
Full

Hourly Weather History & Observations

Time (HST) Temp. Dew Point Humidity Pressure Visibility Wind Dir Wind Speed Gust Speed Precip Events Conditions
12:57 AM - - N/A% - 10.0 mi East 6.9 mph - N/A   Unknown
1:57 AM 73.0 °F 66.9 °F 81% 30.09 in 10.0 mi East 8.1 mph - N/A   Overcast
2:57 AM 73.0 °F 66.9 °F 81% 30.08 in 10.0 mi East 5.8 mph - N/A   Overcast
3:57 AM 73.0 °F 64.9 °F 76% 30.07 in 10.0 mi ESE 4.6 mph - N/A   Mostly Cloudy
4:57 AM 72.0 °F 66.0 °F 81% 30.07 in 10.0 mi East 4.6 mph - N/A   Partly Cloudy
5:57 AM 72.0 °F 64.9 °F 78% 30.08 in 10.0 mi East 5.8 mph - N/A   Scattered Clouds
6:57 AM 71.1 °F 64.0 °F 78% 30.09 in 10.0 mi East 3.5 mph - N/A   Partly Cloudy
7:57 AM 73.9 °F 64.9 °F 73% 30.11 in 10.0 mi ESE 3.5 mph - N/A   Mostly Cloudy
8:57 AM 75.0 °F 66.0 °F 73% 30.12 in 10.0 mi East 6.9 mph - N/A   Mostly Cloudy
9:57 AM 75.9 °F 66.0 °F 71% 30.13 in 10.0 mi ESE 9.2 mph - 0.00 in   Mostly Cloudy
10:04 AM 75.2 °F 66.2 °F 73% 30.14 in 6.2 mi East 6.9 mph - N/A   Mostly Cloudy
10:19 AM 75.2 °F 64.4 °F 69% 30.14 in 10.0 mi East 8.1 mph - N/A   Scattered Clouds
10:57 AM 78.1 °F 64.9 °F 64% 30.11 in 10.0 mi East 10.4 mph 16.1 mph N/A   Scattered Clouds
11:29 AM 77.0 °F 66.2 °F 69% 30.11 in 10.0 mi Variable 6.9 mph - N/A   Mostly Cloudy
11:57 AM 78.1 °F 64.9 °F 64% 30.09 in 10.0 mi ENE 8.1 mph - N/A   Mostly Cloudy
12:24 PM 78.8 °F 64.4 °F 61% 30.10 in 10.0 mi Variable 5.8 mph - N/A   Scattered Clouds
12:30 PM - - N/A% - - North - - N/A   Unknown
12:32 PM 78.8 °F 64.4 °F 61% 30.09 in 10.0 mi ENE 8.1 mph - N/A   Mostly Cloudy
12:44 PM 78.8 °F 64.4 °F 61% 30.09 in 10.0 mi ENE 10.4 mph - N/A   Scattered Clouds
12:57 PM - - N/A% - 10.0 mi ENE 10.4 mph - N/A   Scattered Clouds
1:57 PM 77.0 °F 64.9 °F 66% 30.05 in 10.0 mi ENE 6.9 mph - N/A   Scattered Clouds
2:57 PM 75.0 °F 64.9 °F 71% 30.05 in 10.0 mi ENE 8.1 mph - N/A   Partly Cloudy
3:46 PM 75.2 °F 64.4 °F 69% 30.07 in 10.0 mi ENE 6.9 mph - N/A   Mostly Cloudy
3:57 PM 77.0 °F 64.9 °F 66% 30.06 in 10.0 mi NE 8.1 mph - N/A   Mostly Cloudy
4:27 PM 75.2 °F 64.4 °F 69% 30.08 in 10.0 mi ENE 6.9 mph - N/A   Mostly Cloudy
4:57 PM 75.0 °F 64.9 °F 71% 30.06 in 10.0 mi ENE 4.6 mph - N/A   Mostly Cloudy
5:57 PM 73.9 °F 64.9 °F 73% 30.09 in 10.0 mi ENE 5.8 mph - N/A   Overcast
6:57 PM 73.0 °F 66.0 °F 79% 30.10 in 10.0 mi East 3.5 mph - N/A   Mostly Cloudy
7:54 PM 73.4 °F 66.2 °F 78% 30.13 in 10.0 mi ENE 6.9 mph - N/A   Mostly Cloudy
7:57 PM 73.4 °F 66.2 °F 78% 30.13 in 10.0 mi ENE 5.8 mph - N/A   Mostly Cloudy
8:57 PM 73.0 °F 66.0 °F 79% 30.12 in 10.0 mi ENE 4.6 mph - N/A   Partly Cloudy
9:57 PM 73.0 °F 66.9 °F 81% 30.12 in 10.0 mi NE 6.9 mph - N/A   Overcast
10:57 PM 73.9 °F 66.0 °F 76% 30.11 in 10.0 mi ENE 12.7 mph 18.4 mph 0.00 in   Mostly Cloudy
11:34 PM 73.4 °F 64.4 °F 73% 30.12 in 10.0 mi East 11.5 mph - N/A   Scattered Clouds
11:57 PM 73.0 °F 64.9 °F 76% 30.10 in 10.0 mi East 9.2 mph - N/A   Partly Cloudy